Location: Conflandey
(47.7287°N, 6.0456°E)
Time: 22:04:09
(UTC+00:00)

NOSS 3-2 (A) - Pass Details

Date: 24 October 2021
Orbit: 771 x 1437 km, 63.4° (Epoch: 21 November)

Event Time Altitude Azimuth Distance (km) Brightness Sun altitude
Rises 19:55:35 0° 318° (NW) 3,866 7.5 -34.6°
Reaches altitude 10° 19:58:09 10° 323° (NW) 3,000 6.7 -35.0°
Enters shadow 20:03:52 51° 2° (N) 1,509 4.4 -35.9°
